TimeEST,TemperatureF,Dew PointF,Humidity,Sea Level PressureIn,VisibilityMPH,Wind Direction,Wind SpeedMPH,Gust SpeedMPH,PrecipitationIn,Events,Conditions,WindDirDegrees,DateUTC
12:12 AM,30.9,30.9,100,29.81,1.0,ENE,19.6,28.8,0.00,Snow,Light Snow,70,2012-12-27 05:12:00
12:22 AM,30.9,30.9,100,29.79,0.5,ENE,21.9,32.2,0.01,Fog-Snow,Light Snow,70,2012-12-27 05:22:00
12:54 AM,30.9,30.9,100,29.77,0.8,ENE,21.9,31.1,0.03,Snow,Light Snow,60,2012-12-27 05:54:00
1:07 AM,30.9,30.9,100,29.73,1.0,ENE,18.4,32.2,0.03,Snow,Light Snow,70,2012-12-27 06:07:00
1:26 AM,32.0,30.9,96,29.72,0.8,ENE,21.9,34.5,0.04,Snow,Light Snow,70,2012-12-27 06:26:00
1:44 AM,32.0,30.9,96,29.70,1.8,ENE,19.6,31.1,0.07,Snow,Light Snow,60,2012-12-27 06:44:00
1:49 AM,32.0,30.2,93,29.70,3.0,ENE,19.6,32.2,0.07,Snow,Light Snow,60,2012-12-27 06:49:00
1:54 AM,32.0,30.9,96,29.73,2.5,ENE,17.3,32.2,0.08,Snow,Light Snow,70,2012-12-27 06:54:00
2:05 AM,32.0,30.9,96,29.67,1.8,ENE,18.4,31.1,0.02,,Overcast,60,2012-12-27 07:05:00
2:12 AM,32.0,30.9,96,29.67,2.0,ENE,18.4,28.8,0.02,,Overcast,60,2012-12-27 07:12:00
2:27 AM,32.0,30.9,96,29.63,1.2,ENE,19.6,29.9,0.03,,Overcast,60,2012-12-27 07:27:00
2:54 AM,32.0,30.9,96,29.65,3.0,NE,16.1,31.1,0.05,Snow,Light Snow,50,2012-12-27 07:54:00
3:21 AM,32.0,30.9,96,29.58,1.5,NE,15.0,33.4,0.01,Rain,Light Freezing Rain,50,2012-12-27 08:21:00
3:48 AM,32.0,30.2,93,29.55,3.0,NE,16.1,34.5,N/A,Rain,Light Freezing Rain,50,2012-12-27 08:48:00
3:49 AM,32.0,30.2,93,29.55,3.0,NE,17.3,34.5,N/A,Rain,Light Freezing Rain,50,2012-12-27 08:49:00
4:08 AM,32.0,30.9,96,29.53,2.5,NE,17.3,28.8,0.02,Rain,Light Freezing Rain,50,2012-12-27 09:08:00
4:13 AM,32.0,30.9,96,29.54,1.8,NE,17.3,31.1,0.03,Rain,Light Freezing Rain,50,2012-12-27 09:13:00
4:36 AM,32.0,30.9,96,29.50,2.5,NE,18.4,29.9,0.08,Rain,Light Freezing Rain,50,2012-12-27 09:36:00
4:51 AM,32.0,32.0,100,29.51,4.0,NE,17.3,29.9,0.09,Rain,Light Freezing Rain,50,2012-12-27 09:51:00
4:54 AM,32.0,32.0,100,29.54,4.0,NE,18.4,29.9,0.10,Rain,Light Freezing Rain,50,2012-12-27 09:54:00
5:03 AM,32.0,32.0,100,29.49,3.0,NE,19.6,34.5,0.01,Snow,Light Snow,50,2012-12-27 10:03:00
5:13 AM,32.0,32.0,100,29.48,2.5,NE,15.0,28.8,N/A,Snow,Light Snow,50,2012-12-27 10:13:00
5:25 AM,32.0,32.0,100,29.48,3.0,NE,16.1,33.4,0.04,Snow,Light Snow,50,2012-12-27 10:25:00
5:39 AM,33.1,32.0,96,29.47,2.0,NE,19.6,27.6,0.06,Snow,Light Snow,40,2012-12-27 10:39:00
5:54 AM,33.1,32.0,96,29.49,1.2,NE,19.6,28.8,0.10,Snow,Light Snow,50,2012-12-27 10:54:00
6:06 AM,32.0,32.0,100,29.45,3.0,NE,17.3,29.9,0.01,Snow,Light Snow,50,2012-12-27 11:06:00
6:15 AM,32.0,32.0,100,29.44,1.8,NE,18.4,29.9,0.03,Snow,Light Snow,40,2012-12-27 11:15:00
6:54 AM,30.2,30.2,100,29.43,1.5,NE,13.8,26.5,N/A,Snow,Light Snow,40,2012-12-27 11:54:00
7:54 AM,30.9,30.0,96,29.41,1.5,NE,16.1,33.4,0.10,Rain,Light Freezing Rain,40,2012-12-27 12:54:00
8:01 AM,30.9,30.0,96,29.37,2.0,NNE,20.7,33.4,0.00,Rain,Light Freezing Rain,30,2012-12-27 13:01:00
8:34 AM,32.0,30.9,96,29.35,1.8,NNE,21.9,39.1,0.04,Rain,Light Freezing Rain,30,2012-12-27 13:34:00
8:43 AM,32.0,30.9,96,29.35,2.0,NNE,23.0,36.8,0.06,Rain,Light Freezing Rain,30,2012-12-27 13:43:00
8:51 AM,32.0,30.2,93,29.35,2.0,NNE,18.4,34.5,0.07,Rain,Light Freezing Rain,30,2012-12-27 13:51:00
8:54 AM,32.0,30.9,96,29.39,2.0,NNE,19.6,31.1,0.07,Rain,Light Freezing Rain,30,2012-12-27 13:54:00
9:10 AM,32.0,30.2,93,29.35,2.0,NNE,20.7,33.4,N/A,Rain,Light Freezing Rain,20,2012-12-27 14:10:00
9:17 AM,32.0,30.9,96,29.34,1.8,NNE,19.6,35.7,0.05,Rain,Light Freezing Rain,30,2012-12-27 14:17:00
9:24 AM,32.0,30.9,96,29.34,2.0,NNE,20.7,35.7,0.08,Rain,Light Freezing Rain,30,2012-12-27 14:24:00
9:54 AM,32.0,30.9,96,29.37,2.0,NNE,18.4,33.4,0.12,Rain,Light Freezing Rain,20,2012-12-27 14:54:00
10:25 AM,32.0,32.0,100,29.33,2.0,NNE,18.4,32.2,0.02,Rain,Light Freezing Rain,30,2012-12-27 15:25:00
10:32 AM,32.0,30.2,93,29.32,2.0,NNE,25.3,35.7,N/A,Snow,Light Snow,20,2012-12-27 15:32:00
10:54 AM,33.1,30.9,92,29.34,2.5,NNE,23.0,35.7,0.02,Snow,Light Snow,30,2012-12-27 15:54:00
11:54 AM,33.1,30.9,92,29.30,2.5,NNE,20.7,38.0,0.00,Rain,Light Rain,20,2012-12-27 16:54:00
12:54 PM,33.1,32.0,96,29.29,10.0,NNE,18.4,26.5,0.00,,Overcast,20,2012-12-27 17:54:00
1:27 PM,33.1,32.0,96,29.25,1.5,NNE,21.9,34.5,0.00,Rain,Light Rain,20,2012-12-27 18:27:00
1:44 PM,33.1,30.9,92,29.26,2.0,NNE,20.7,31.1,0.00,Rain,Light Rain,20,2012-12-27 18:44:00
1:54 PM,33.1,32.0,96,29.30,2.0,North,23.0,34.5,0.00,Rain,Light Rain,10,2012-12-27 18:54:00
2:08 PM,33.1,32.0,96,29.28,7.0,North,18.4,27.6,0.00,Rain,Light Rain,10,2012-12-27 19:08:00
2:47 PM,33.1,30.9,92,29.31,7.0,North,17.3,27.6,0.00,,Overcast,360,2012-12-27 19:47:00
2:54 PM,33.1,30.9,92,29.35,7.0,North,13.8,27.6,0.00,,Overcast,360,2012-12-27 19:54:00
3:25 PM,33.1,30.9,92,29.33,2.5,North,11.5,24.2,0.01,Snow,Light Snow,350,2012-12-27 20:25:00
3:45 PM,33.1,30.9,92,29.34,1.0,North,16.1,25.3,0.01,,Overcast,350,2012-12-27 20:45:00
3:54 PM,33.1,30.9,92,29.38,1.0,NNW,16.1,25.3,0.02,,Overcast,340,2012-12-27 20:54:00
4:36 PM,32.0,30.0,92,29.38,1.0,NNW,11.5,23.0,0.01,Snow,Light Snow,330,2012-12-27 21:36:00
4:44 PM,32.0,30.0,92,29.38,1.0,NNW,13.8,21.9,0.02,Snow,Light Snow,330,2012-12-27 21:44:00
4:54 PM,30.9,28.9,92,29.42,1.0,NNW,16.1,21.9,0.02,Snow,Light Snow,340,2012-12-27 21:54:00
5:54 PM,30.9,28.0,89,29.45,1.0,NNW,15.0,26.5,0.01,Snow,Light Snow,340,2012-12-27 22:54:00
6:15 PM,30.9,28.0,89,29.43,2.0,NNW,15.0,25.3,0.00,Snow,Light Snow,330,2012-12-27 23:15:00
6:54 PM,30.9,28.0,89,29.50,2.0,NNW,16.1,26.5,0.00,Snow,Light Snow,340,2012-12-27 23:54:00
7:49 PM,30.2,28.4,93,29.50,1.5,NW,18.4,24.2,N/A,Snow,Light Snow,320,2012-12-28 00:49:00
7:54 PM,30.0,27.0,88,29.54,1.5,NW,13.8,24.2,0.00,Snow,Light Snow,320,2012-12-28 00:54:00
8:05 PM,30.0,27.0,88,29.51,1.5,NW,17.3,-,0.00,Snow,Light Snow,320,2012-12-28 01:05:00
8:21 PM,30.0,27.0,88,29.52,2.5,NW,16.1,23.0,0.00,Snow,Light Snow,310,2012-12-28 01:21:00
8:36 PM,30.2,26.6,86,29.53,3.0,NW,16.1,-,N/A,Snow,Light Snow,310,2012-12-28 01:36:00
8:44 PM,30.2,26.6,86,29.53,3.0,NW,15.0,-,N/A,Snow,Light Snow,310,2012-12-28 01:44:00
8:54 PM,30.0,27.0,88,29.57,7.0,NNW,15.0,24.2,0.00,Snow,Light Snow,330,2012-12-28 01:54:00
9:54 PM,28.9,26.1,89,29.60,6.0,WNW,19.6,26.5,0.00,,Overcast,290,2012-12-28 02:54:00
10:54 PM,28.0,24.1,85,29.62,9.0,WNW,19.6,35.7,0.00,,Overcast,300,2012-12-28 03:54:00
11:25 PM,28.0,24.1,85,29.60,9.0,NW,18.4,27.6,N/A,,Overcast,310,2012-12-28 04:25:00
11:54 PM,27.0,23.0,85,29.64,10.0,NW,25.3,33.4,N/A,,Overcast,310,2012-12-28 04:54:00